Tracking 19644 objects as of 25-Apr-2019
HD Live streaming from Space Station
objects crossing your sky now

THORAD AGENA D DEB

Track THORAD AGENA D DEB now!
10-day predictions


NORAD ID: 20326
Int'l Code: 1970-025QE
Perigee: 696.7 km
Apogee: 790.9 km
Inclination: 99.9 °
Period: 99.5 minutes
Semi major axis: 7114 km
RCS: 0.0119 m2 (small)
Launch date: April 8, 1970
Source: United States (US)
Launch site: AIR FORCE WESTERN TEST RANGE (AFWTR)

Note: This is SATELLITE DEBRIS
aabbcc
Your satellite tracking list
Your tracking list is empty




NASA's NSSDC Master Catalog

Two Line Element Set (TLE):
1 20326U 70025QE  19115.51298751 +.00001571 +00000-0 +44005-3 0  9992
2 20326 099.8941 100.9550 0066179 261.3392 225.2528 14.46635190543625
Source of the keplerian elements: AFSPC